Regional Weather Roundup
Issued by NWS

Home | Current Version | Previous Version | Text Only | Print | Product List | Glossary Off
Versions: 1 2 3 4 5 6 7 8 9 10 11 12 13 14 15 16 17 18 19 20 21 22 23 24 25 26 27 28 29 30 31 32 33 34 35 36 37 38 39 40 41 42 43 44 45 46 47 48 49 50

000
ASUS43 KLSX 020557
RWRMO

WEATHER SUMMARY FOR MISSOURI
NATIONAL WEATHER SERVICE SPRINGFIELD MO
1200 AM CST FRI DEC 02 2016

NOTE: "FAIR" INDICATES FEW OR NO CLOUDS BELOW 12,000 FEET WITH NO
       SIGNIFICANT WEATHER AND/OR OBSTRUCTIONS TO VISIBILITY.
       CURRENT SKY AND/OR WEATHER CONDITIONS ARE NOT AVAILABLE FOR
       CHILLICOTHE AND FARMINGTON.

MOZ001>031-035>038-043-044-053-054-020700-
...NORTHERN AND WESTERN MISSOURI...

CITY           SKY/WX    TMP DP  RH WIND       PRES   REMARKS
KANSAS CTY INT CLEAR     33  23  66 SW3       30.11R
6HR MIN TEMP:  29; 6HR MAX TEMP:  40;

LEE`S SUMMIT   CLEAR     33  24  69 CALM      30.12R
6HR MIN TEMP:  31; 6HR MAX TEMP:  39;

ST JOSEPH      CLEAR     24  21  88 CALM      30.13R
6HR MIN TEMP:  23; 6HR MAX TEMP:  35;

CHILLICOTHE      N/A     25  23  92 CALM      30.14R
6HR MIN TEMP:  24; 6HR MAX TEMP:  38;


$$
MOZ066>068-077>081-088>096-101>105-020700-
...SOUTHWEST MISSOURI...

CITY           SKY/WX    TMP DP  RH WIND       PRES   REMARKS
SPRINGFIELD    CLOUDY    35  28  75 SE3       30.11R
6HR MIN TEMP:  29; 6HR MAX TEMP:  39;

JOPLIN         CLOUDY    40  27  59 E6        30.12R
6HR MIN TEMP:  33; 6HR MAX TEMP:  44;


$$
MOZ032>034-039>042-045>050-055>058-069>072-020700-
...CENTRAL MISSOURI...

CITY           SKY/WX    TMP DP  RH WIND       PRES   REMARKS
COLUMBIA       NOT AVBL
JEFFERSON CITY CLEAR     27  24  89 CALM      30.14R
6HR MIN TEMP:  26; 6HR MAX TEMP:  40;

ROLLA          PTCLDY    33  24  69 NW7       30.11R WCI  27
6HR MIN TEMP:  27; 6HR MAX TEMP:  37;

SEDALIA        PTCLDY    31  23  72 CALM      30.13R
6HR MIN TEMP:  28; 6HR MAX TEMP:  40;

WARRENSBURG    CLEAR     28  25  86 CALM      30.12R

$$
MOZ051-052-059>065-020700-
...EAST CENTRAL MISSOURI...

CITY           SKY/WX    TMP DP  RH WIND       PRES   REMARKS
ST LOUIS INTL  CLEAR     30  24  78 W3        30.13R
6HR MIN TEMP:  30; 6HR MAX TEMP:  42;


$$
MOZ072>076-082>087-097>100-106>115-020700-
...SOUTH CENTRAL AND SOUTHEAST MISSOURI...

CITY           SKY/WX    TMP DP  RH WIND       PRES   REMARKS
CAPE GIRARDEAU CLEAR     29  27  92 CALM      30.13R
6HR MIN TEMP:  29; 6HR MAX TEMP:  40;

POPLAR BLUFF   CLEAR     32  30  92 CALM      30.13R
6HR MIN TEMP:  31; 6HR MAX TEMP:  43;

WEST PLAINS    CLEAR     32  24  72 MISG      30.13R
6HR MIN TEMP:  29; 6HR MAX TEMP:  41;


$$



USA.gov is the U.S. government's official web portal to all federal, state and local government web resources and services.